This is the latest recevied weather packets stored in our database for station/object KF0EZB. If no packets are shown the sender has not sent any weather packets the latest 10 day(s).
| Time | Temp. | Humidity | Pressure | Rain* | Wind** | Luminosity | Snow |
|---|---|---|---|---|---|---|---|
| 1777763318 | 22.78° C | 27% | 1017.5 hPa | 0 mm | - | 274 W/m² | - |
| 1777763016 | 22.78° C | 26% | 1017.5 hPa | 0 mm | - | 265 W/m² | - |
| 1777762712 | 22.78° C | 26% | 1017.6 hPa | 0 mm | - | 261 W/m² | - |
| 1777762409 | 22.78° C | 26% | 1017.5 hPa | 0 mm | - | 279 W/m² | - |
| 1777762106 | 22.78° C | 26% | 1017.5 hPa | 0 mm | - | 307 W/m² | - |
| 1777761802 | 22.78° C | 26% | 1017.7 hPa | 0 mm | - | 353 W/m² | - |
| 1777761500 | 22.78° C | 26% | 1017.6 hPa | 0 mm | - | 352 W/m² | - |
| 1777761198 | 23.33° C | 26% | 1017.6 hPa | 0 mm | - | 354 W/m² | - |
| 1777760895 | 22.22° C | 27% | 1017.6 hPa | 0 mm | - | 365 W/m² | - |
| 1777760592 | 22.78° C | 26% | 1017.7 hPa | 0 mm | - | 406 W/m² | - |
| 1777760288 | 22.78° C | 27% | 1017.9 hPa | 0 mm | - | 382 W/m² | - |
| 1777759984 | 22.22° C | 28% | 1018.1 hPa | 0 mm | - | 439 W/m² | - |
| 1777759681 | 22.78° C | 27% | 1018.2 hPa | 0 mm | - | 454 W/m² | - |
| 1777759377 | 22.78° C | 26% | 1018.1 hPa | 0 mm | - | 471 W/m² | - |
| 1777759074 | 22.22° C | 27% | 1018 hPa | 0 mm | - | 482 W/m² | - |
| 1777758771 | 22.22° C | 27% | 1018.2 hPa | 0 mm | - | 501 W/m² | - |
| 1777758468 | 22.78° C | 27% | 1018.2 hPa | 0 mm | - | 515 W/m² | - |
| 1777758165 | 22.78° C | 27% | 1018.3 hPa | 0 mm | - | 522 W/m² | - |
| 1777757862 | 22.22° C | 28% | 1018.5 hPa | 0 mm | - | 537 W/m² | - |
| 1777757560 | 21.67° C | 27% | 1018.6 hPa | 0 mm | - | 557 W/m² | - |
| 1777757258 | 22.22° C | 27% | 1018.7 hPa | 0 mm | - | 554 W/m² | - |
| 1777756956 | 21.67° C | 28% | 1018.9 hPa | 0 mm | - | 565 W/m² | - |
| 1777756652 | 21.11° C | 29% | 1018.9 hPa | 0 mm | - | 566 W/m² | - |
| 1777756349 | 21.11° C | 27% | 1018.7 hPa | 0 mm | - | 587 W/m² | - |
| 1777756046 | 22.22° C | 27% | 1018.9 hPa | 0 mm | - | 594 W/m² | - |
* Rain latest hour (hover to see other rain measurements)
** Current wind speed in m/s (hover to see current wind gust speed)